Time,TemperatureF,DewpointF,PressureIn,WindDirection,WindDirectionDegrees,WindSpeedMPH,WindSpeedGustMPH,Humidity,HourlyPrecipIn,Conditions,Clouds,dailyrainin,SolarRadiationWatts/m^2,SoftwareType,DateUTC
2013-04-23 00:21:00,7.0,3.0,-100.00,NNW,332,1.0,3.0,85,0.00,,,0.28,0.000000,,2013-04-23 06:21:00,
2013-04-23 00:33:00,7.0,3.0,-100.00,NNW,332,1.0,3.0,85,0.00,,,0.28,0.000000,,2013-04-23 06:33:00,
2013-04-23 00:42:00,7.0,3.0,-100.00,NNW,332,1.0,3.0,85,0.00,,,0.28,0.000000,,2013-04-23 06:42:00,
2013-04-23 00:52:00,7.0,3.0,-100.00,NNW,332,1.0,3.0,85,0.00,,,0.28,0.000000,,2013-04-23 06:52:00,
2013-04-23 01:21:00,6.0,2.0,-100.00,NW,317,1.0,3.0,83,0.00,,,0.28,0.000000,,2013-04-23 07:21:00,
2013-04-23 01:32:00,6.0,2.0,-100.00,NW,317,1.0,3.0,83,0.00,,,0.28,0.000000,,2013-04-23 07:32:00,
2013-04-23 01:42:00,6.0,2.0,-100.00,NW,317,1.0,3.0,83,0.00,,,0.28,0.000000,,2013-04-23 07:42:00,
2013-04-23 01:52:00,6.0,2.0,-100.00,NW,317,1.0,3.0,83,0.00,,,0.28,0.000000,,2013-04-23 07:52:00,
2013-04-23 02:21:00,6.0,2.0,-100.00,NNW,328,1.0,2.0,82,0.00,,,0.28,0.000000,,2013-04-23 08:21:00,
2013-04-23 02:32:00,6.0,2.0,-100.00,NNW,328,1.0,2.0,82,0.00,,,0.28,0.000000,,2013-04-23 08:32:00,
2013-04-23 02:42:00,6.0,2.0,-100.00,NNW,328,1.0,2.0,82,0.00,,,0.28,0.000000,,2013-04-23 08:42:00,
2013-04-23 02:52:00,6.0,2.0,-100.00,NNW,328,1.0,2.0,82,0.00,,,0.28,0.000000,,2013-04-23 08:52:00,
2013-04-23 03:21:00,8.0,4.0,-100.00,NNW,336,1.0,3.0,82,0.00,,,0.28,0.000000,,2013-04-23 09:21:00,
2013-04-23 03:33:00,8.0,4.0,-100.00,NNW,336,1.0,3.0,82,0.00,,,0.28,0.000000,,2013-04-23 09:33:00,
2013-04-23 03:43:00,8.0,4.0,-100.00,NNW,336,1.0,3.0,82,0.00,,,0.28,0.000000,,2013-04-23 09:43:00,
2013-04-23 03:52:00,8.0,4.0,-100.00,NNW,336,1.0,3.0,82,0.00,,,0.28,0.000000,,2013-04-23 09:52:00,
2013-04-23 04:22:00,5.0,0.0,-100.00,NNW,342,2.0,3.0,81,0.00,,,0.28,0.000000,,2013-04-23 10:22:00,
2013-04-23 04:33:00,5.0,0.0,-100.00,NNW,342,2.0,3.0,81,0.00,,,0.28,0.000000,,2013-04-23 10:33:00,
2013-04-23 04:42:00,5.0,0.0,-100.00,NNW,342,2.0,3.0,81,0.00,,,0.28,0.000000,,2013-04-23 10:42:00,
2013-04-23 04:52:00,5.0,0.0,-100.00,NNW,342,2.0,3.0,81,0.00,,,0.28,0.000000,,2013-04-23 10:52:00,
2013-04-23 05:21:00,3.0,-2.0,-100.00,NNW,333,2.0,3.0,80,0.00,,,0.28,0.000000,,2013-04-23 11:21:00,
2013-04-23 05:32:00,3.0,-2.0,-100.00,NNW,333,2.0,3.0,80,0.00,,,0.28,0.000000,,2013-04-23 11:32:00,
2013-04-23 05:42:00,3.0,-2.0,-100.00,NNW,333,2.0,3.0,80,0.00,,,0.28,0.000000,,2013-04-23 11:42:00,
2013-04-23 05:52:00,3.0,-2.0,-100.00,NNW,333,2.0,3.0,80,0.00,,,0.28,0.000000,,2013-04-23 11:52:00,
2013-04-23 06:22:00,1.0,-4.0,-100.00,NNW,328,2.0,3.0,78,0.00,,,0.28,1.000000,,2013-04-23 12:22:00,
2013-04-23 06:32:00,1.0,-4.0,-100.00,NNW,328,2.0,3.0,78,0.00,,,0.28,1.000000,,2013-04-23 12:32:00,
2013-04-23 06:42:00,1.0,-4.0,-100.00,NNW,328,2.0,3.0,78,0.00,,,0.28,1.000000,,2013-04-23 12:42:00,
2013-04-23 06:51:00,1.0,-4.0,-100.00,NNW,328,2.0,3.0,78,0.00,,,0.28,1.000000,,2013-04-23 12:51:00,
2013-04-23 07:21:00,2.0,-3.0,-100.00,North,354,0.0,3.0,79,0.00,,,0.28,20.000000,,2013-04-23 13:21:00,
2013-04-23 07:32:00,2.0,-3.0,-100.00,North,354,0.0,3.0,79,0.00,,,0.28,20.000000,,2013-04-23 13:32:00,
2013-04-23 07:42:00,2.0,-3.0,-100.00,North,354,0.0,3.0,79,0.00,,,0.28,20.000000,,2013-04-23 13:42:00,
2013-04-23 07:52:00,2.0,-3.0,-100.00,North,354,0.0,3.0,79,0.00,,,0.28,20.000000,,2013-04-23 13:52:00,
2013-04-23 08:22:00,16.0,9.0,-100.00,North,358,2.0,4.0,73,0.00,,,0.28,222.000000,,2013-04-23 14:22:00,
2013-04-23 08:32:00,16.0,9.0,-100.00,North,358,2.0,4.0,73,0.00,,,0.28,222.000000,,2013-04-23 14:32:00,
2013-04-23 08:42:00,16.0,9.0,-100.00,North,358,2.0,4.0,73,0.00,,,0.28,222.000000,,2013-04-23 14:42:00,
2013-04-23 08:52:00,16.0,9.0,-100.00,North,358,2.0,4.0,73,0.00,,,0.28,222.000000,,2013-04-23 14:52:00,
2013-04-23 09:21:00,28.0,12.0,-100.00,NW,322,5.0,11.0,50,0.00,,,0.28,434.000000,,2013-04-23 15:21:00,
2013-04-23 09:32:00,28.0,12.0,-100.00,NW,322,5.0,11.0,50,0.00,,,0.28,434.000000,,2013-04-23 15:32:00,
2013-04-23 09:42:00,28.0,12.0,-100.00,NW,322,5.0,11.0,50,0.00,,,0.28,434.000000,,2013-04-23 15:42:00,
2013-04-23 09:53:00,28.0,12.0,-100.00,NW,322,5.0,11.0,50,0.00,,,0.28,434.000000,,2013-04-23 15:53:00,
2013-04-23 10:23:00,32.0,12.0,-100.00,WNW,284,5.0,13.0,43,0.01,,,0.29,659.000000,,2013-04-23 16:23:00,
2013-04-23 10:34:00,32.0,12.0,-100.00,WNW,284,5.0,13.0,43,0.01,,,0.29,659.000000,,2013-04-23 16:34:00,
2013-04-23 10:43:00,32.0,12.0,-100.00,WNW,284,5.0,13.0,43,0.01,,,0.29,659.000000,,2013-04-23 16:43:00,
2013-04-23 10:52:00,32.0,12.0,-100.00,WNW,284,5.0,13.0,43,0.01,,,0.29,659.000000,,2013-04-23 16:52:00,
2013-04-23 11:22:00,35.0,13.0,-100.00,NW,323,5.0,9.0,39,0.02,,,0.31,857.000000,,2013-04-23 17:22:00,
2013-04-23 11:32:00,35.0,13.0,-100.00,NW,323,5.0,9.0,39,0.02,,,0.31,857.000000,,2013-04-23 17:32:00,
2013-04-23 11:42:00,35.0,13.0,-100.00,NW,323,5.0,9.0,39,0.02,,,0.31,857.000000,,2013-04-23 17:42:00,
2013-04-23 11:53:00,35.0,13.0,-100.00,NW,323,5.0,9.0,39,0.02,,,0.31,857.000000,,2013-04-23 17:53:00,
2013-04-23 12:22:00,37.0,13.0,-100.00,NNE,12,4.0,9.0,36,0.00,,,0.31,1008.000000,,2013-04-23 18:22:00,
2013-04-23 12:32:00,37.0,13.0,-100.00,NNE,12,4.0,9.0,36,0.00,,,0.31,1008.000000,,2013-04-23 18:32:00,
2013-04-23 12:42:00,37.0,13.0,-100.00,NNE,12,4.0,9.0,36,0.00,,,0.31,1008.000000,,2013-04-23 18:42:00,
2013-04-23 12:52:00,37.0,13.0,-100.00,NNE,12,4.0,9.0,36,0.00,,,0.31,1008.000000,,2013-04-23 18:52:00,
2013-04-23 13:22:00,34.0,15.0,-100.00,SSE,153,6.0,14.0,45,0.00,,,0.27,1008.000000,,2013-04-23 19:22:00,
2013-04-23 13:32:00,34.0,15.0,-100.00,SSE,153,6.0,14.0,45,0.00,,,0.27,1008.000000,,2013-04-23 19:32:00,
2013-04-23 13:42:00,34.0,15.0,-100.00,SSE,153,6.0,14.0,45,0.00,,,0.27,1008.000000,,2013-04-23 19:42:00,
2013-04-23 13:52:00,34.0,15.0,-100.00,SSE,153,6.0,14.0,45,0.00,,,0.27,1008.000000,,2013-04-23 19:52:00,
2013-04-23 14:22:00,34.0,17.0,-100.00,SSE,149,6.0,14.0,49,0.00,,,0.17,973.000000,,2013-04-23 20:22:00,
2013-04-23 14:32:00,34.0,17.0,-100.00,SSE,149,6.0,14.0,49,0.00,,,0.17,973.000000,,2013-04-23 20:32:00,
2013-04-23 14:42:00,34.0,17.0,-100.00,SSE,149,6.0,14.0,49,0.00,,,0.17,973.000000,,2013-04-23 20:42:00,
2013-04-23 14:52:00,34.0,17.0,-100.00,SSE,149,6.0,14.0,49,0.00,,,0.17,973.000000,,2013-04-23 20:52:00,
2013-04-23 15:22:00,33.0,16.0,-100.00,SSE,154,7.0,12.0,49,0.00,,,0.08,903.000000,,2013-04-23 21:22:00,
2013-04-23 15:33:00,33.0,16.0,-100.00,SSE,154,7.0,12.0,49,0.00,,,0.08,903.000000,,2013-04-23 21:33:00,
2013-04-23 15:43:00,33.0,16.0,-100.00,SSE,154,7.0,12.0,49,0.00,,,0.08,903.000000,,2013-04-23 21:43:00,
2013-04-23 15:52:00,33.0,16.0,-100.00,SSE,154,7.0,12.0,49,0.00,,,0.08,903.000000,,2013-04-23 21:52:00,
2013-04-23 16:22:00,33.0,16.0,-100.00,SSE,151,6.0,12.0,50,0.00,,,0.04,671.000000,,2013-04-23 22:22:00,
2013-04-23 16:33:00,33.0,16.0,-100.00,SSE,151,6.0,12.0,50,0.00,,,0.04,671.000000,,2013-04-23 22:33:00,
2013-04-23 16:42:00,33.0,16.0,-100.00,SSE,151,6.0,12.0,50,0.00,,,0.04,671.000000,,2013-04-23 22:42:00,
2013-04-23 16:52:00,33.0,16.0,-100.00,SSE,151,6.0,12.0,50,0.00,,,0.04,671.000000,,2013-04-23 22:52:00,
2013-04-23 17:22:00,35.0,18.0,-100.00,NNE,21,5.0,10.0,50,0.00,,,0.03,539.000000,,2013-04-23 23:22:00,
2013-04-23 17:32:00,35.0,18.0,-100.00,NNE,21,5.0,10.0,50,0.00,,,0.03,539.000000,,2013-04-23 23:32:00,
2013-04-23 17:42:00,35.0,18.0,-100.00,NNE,21,5.0,10.0,50,0.00,,,0.03,539.000000,,2013-04-23 23:42:00,
2013-04-23 17:52:00,35.0,18.0,-100.00,NNE,21,5.0,10.0,50,0.00,,,0.03,539.000000,,2013-04-23 23:52:00,
2013-04-23 18:22:00,33.0,18.0,-100.00,SE,145,6.0,8.0,54,0.00,,,0.03,405.000000,,2013-04-24 00:22:00,
2013-04-23 18:32:00,33.0,18.0,-100.00,SE,145,6.0,8.0,54,0.00,,,0.03,405.000000,,2013-04-24 00:32:00,
2013-04-23 18:41:00,33.0,18.0,-100.00,SE,145,6.0,8.0,54,0.00,,,0.03,405.000000,,2013-04-24 00:41:00,
2013-04-23 18:52:00,33.0,18.0,-100.00,SE,145,6.0,8.0,54,0.00,,,0.03,405.000000,,2013-04-24 00:52:00,
2013-04-23 19:21:00,29.0,18.0,-100.00,SSE,148,6.0,10.0,64,0.00,,,0.03,146.000000,,2013-04-24 01:21:00,
2013-04-23 19:32:00,29.0,18.0,-100.00,SSE,148,6.0,10.0,64,0.00,,,0.03,146.000000,,2013-04-24 01:32:00,
2013-04-23 19:42:00,29.0,18.0,-100.00,SSE,148,6.0,10.0,64,0.00,,,0.03,146.000000,,2013-04-24 01:42:00,
2013-04-23 19:52:00,29.0,18.0,-100.00,SSE,148,6.0,10.0,64,0.00,,,0.03,146.000000,,2013-04-24 01:52:00,
2013-04-23 20:30:00,26.0,19.0,-100.00,South,172,3.0,7.0,74,0.00,,,0.03,18.000000,,2013-04-24 02:30:00,
2013-04-23 20:39:00,26.0,19.0,-100.00,South,172,3.0,7.0,74,0.00,,,0.03,18.000000,,2013-04-24 02:39:00,
2013-04-23 20:47:00,26.0,19.0,-100.00,South,172,3.0,7.0,74,0.00,,,0.03,18.000000,,2013-04-24 02:47:00,
2013-04-23 20:56:00,26.0,19.0,-100.00,South,172,3.0,7.0,74,0.00,,,0.03,18.000000,,2013-04-24 02:56:00,
2013-04-23 21:29:00,22.0,18.0,-100.00,NW,321,1.0,3.0,84,0.00,,,0.03,1.000000,,2013-04-24 03:29:00,
2013-04-23 21:56:00,22.0,18.0,-100.00,NW,321,1.0,3.0,84,0.00,,,0.03,1.000000,,2013-04-24 03:56:00,
2013-04-23 22:23:00,19.0,15.0,-100.00,NNW,347,2.0,3.0,84,0.00,,,0.03,0.000000,,2013-04-24 04:23:00,
2013-04-23 22:33:00,19.0,15.0,-100.00,NNW,347,2.0,3.0,84,0.00,,,0.03,0.000000,,2013-04-24 04:33:00,
2013-04-23 22:43:00,19.0,15.0,-100.00,NNW,347,2.0,3.0,84,0.00,,,0.03,0.000000,,2013-04-24 04:43:00,
2013-04-23 22:52:00,19.0,15.0,-100.00,NNW,347,2.0,3.0,84,0.00,,,0.03,0.000000,,2013-04-24 04:52:00,
2013-04-23 23:22:00,17.0,14.0,-100.00,NNW,346,2.0,3.0,88,0.00,,,0.03,0.000000,,2013-04-24 05:22:00,
2013-04-23 23:32:00,17.0,14.0,-100.00,NNW,346,2.0,3.0,88,0.00,,,0.03,0.000000,,2013-04-24 05:32:00,
2013-04-23 23:42:00,17.0,14.0,-100.00,NNW,346,2.0,3.0,88,0.00,,,0.03,0.000000,,2013-04-24 05:42:00,
2013-04-23 23:52:00,17.0,14.0,-100.00,NNW,346,2.0,3.0,88,0.00,,,0.03,0.000000,,2013-04-24 05:52:00,